Regional Weather Roundup
Issued by NWS

Home | Current Version | Previous Version | Text Only | Print | Product List | Glossary On
Versions: 1 2 3 4 5 6 7 8 9 10 11 12 13 14 15 16 17 18 19 20 21 22 23 24 25 26 27 28
000
ASUS45 KBOU 210710
RWRCO

WEATHER ROUNDUP FOR COLORADO
NATIONAL WEATHER SERVICE DENVER/BOULDER CO
1200 AM MST SUN JAN 21 2018

NOTE: "FAIR" INDICATES FEW OR NO CLOUDS BELOW 12000 FEET WITH NO
SIGNIFICANT WEATHER AND/OR OBSTRUCTIONS TO VISIBILITY.

COZ001>005-013-030-031-210800-
...NORTHWEST COLORADO...

CITY           SKY/WX    TMP DP  RH WIND       PRES   REMARKS
CRAIG          CLOUDY    26  22  84 W10       29.75F WCI  16
HAYDEN         FLURRIES N/A N/A N/A W6        29.75F
MEEKER         LGT SNOW  28  24  85 N5        29.74S FOG     WCI  23
RABBIT EARS PA LGT SNOW  18  18 100 W9G21     29.66F VSB 3/4 WCI   6
STEAMBOAT SPGS CLOUDY    25  24  97 CALM      29.72S
WALDEN         CLOUDY    19  16  86 N17       29.70R VSB 1   WCI   4
$$

COZ006>008-011-210800-
...WEST CENTRAL VALLEYS...

CITY           SKY/WX    TMP DP  RH WIND       PRES   REMARKS
GRAND JUNCTION CLOUDY    35  35 100 E5        29.73R WCI  31
MONTROSE       CLOUDY    37  22  54 CALM      29.73F
EAGLE          CLOUDY    34  28  79 S9        29.73S WCI  27
RIFLE          LGT RAIN  33  33 100 NW3       29.72F
DELTA          CLOUDY    38  33  81 N7        29.72F
NUCLA          CLOUDY    34  28  80 SW3       29.78F
$$

COZ017>023-064>068-210800-
...SOUTHWEST COLORADO...

CITY           SKY/WX    TMP DP  RH WIND       PRES   REMARKS
DURANGO        CLOUDY    28  28 100 CALM      29.79R
CORTEZ         MOCLDY    27  25  92 SW3       29.79S
PAGOSA SPRINGS LGT SNOW  29  28  98 E3        29.80S VSB 1
TELLURIDE      CLOUDY    24  20  85 E6        29.74F WCI  17
WOLF CREEK PAS HVY SNOW  12  12 100 MISG      29.78F VSB 1/4
$$

COZ009-010-012-014-032>034-037-058>063-210800-
...CENTRAL COLORADO...

CITY           SKY/WX    TMP DP  RH WIND       PRES   REMARKS
ASPEN          CLOUDY    30  26  85 CALM      29.69R
BUENA VISTA    CLOUDY    35  22  58 SE8       29.64F WCI  29
COPPER MTN     NOT AVBL
BERTHOUD PASS  LGT SNOW  18   5  57 S25G33    29.69F WCI  -1
COTTONWOOD PAS LGT SNOW  34  30  86 SE16G22   29.65F WCI  23
GUNNISON       LGT SNOW  28  25  86 N3        29.72R FOG
KREMMLING      SNOW      34  30  86 NW9G18    29.71R VSB 1/2 WCI  26
LEADVILLE      SNOW      22  21  96 N7        29.67R VSB 1/4 WCI  13
MONARCH PASS   CLOUDY    19  18  93 W24       29.79F WCI   2
SALIDA         CLOUDY    40  27  59 SE7       29.72F
SUNLIGHT       LGT SNOW  19  16  86 SW14G33   29.74S VSB 3/4 WCI   6
WILKERSON PASS CLOUDY    21  19  93 S13G22    29.73F WCI   9
$$

COZ069>075-210800-
...SAN LUIS VALLEY/SANGRE DE CRISTO MOUNTAINS...

CITY           SKY/WX    TMP DP  RH WIND       PRES   REMARKS
ALAMOSA        FAIR      28  22  78 S9        29.68F WCI  19
DEL NORTE      FAIR      30  20  65 SW24G36   29.70S WCI  16
LA VETA PASS   FAIR      30  18  59 SE17G32     N/A  WCI  18
SAGUACHE       LGT SNOW  27  21  80 CALM      29.68F
$$

COZ035-036-038>040-210800-
...NORTHERN COLORADO FRONT RANGE...

CITY           SKY/WX    TMP DP  RH WIND       PRES   REMARKS
DENVER INTL AP FRZ DRZL  28  26  92 NE7       29.79S FOG     WCI  21
DMNS CITY PARK NOT AVBL
AURORA         FRZ DRZL  28  28 100 NE5       29.78F FOG     WCI  22
FRONT RANGE AP MIX PCPN  30  29  96 E7        29.79F WCI  23
ERIE MUNI ARPT LGT SNOW  31  30  96 E6        29.84F WCI  25
BOULDER MUN AP LGT SNOW  30  30 100 NE6       29.78F WCI  24
CENTENNIAL     FRZ DRZL  28  28 100 NE3       29.77F FOG
BROOMFIELD     LGT SNOW  30  30 100 NE7       29.78F WCI  23
FORT COLLINS   MIX PCPN  29  28  96 E14       29.81F WCI  18
LONGMONT       LGT SNOW  33  31  94 E5        29.81F WCI  28
$$

COZ041-046-047-076>085-087-088-210800-
...PIKES PEAK/PALMER DIVIDE AND SOUTHERN FOOTHILLS...

CITY           SKY/WX    TMP DP  RH WIND       PRES   REMARKS
COLO. SPRINGS  MOCLDY    28  23  81 N8        29.74S WCI  20
A. F. ACADEMY  CLOUDY    28  25  88 N10       29.72F WCI  19
SCHRIEVER AFB  MOCLDY    26  25  96 NE13G20   29.74S WCI  15
CHEYENNE MTN   CLOUDY    29  25  86 N7        29.67F WCI  22
ELLICOTT       CLOUDY   N/A N/A N/A NE9       29.73R
FALCON         CLOUDY    26  26  98 N12       29.74S FOG     WCI  16
FORT CARSON    FAIR      32  25  77 N13       29.72S WCI  22
LIMON          CLOUDY    26  26 100 NE9       29.76S WCI  17
MONUMENT HILL  FOG       25  23  93 CALM      29.75F VSB 1/4
CANON CITY     CLOUDY    36  28  75 SE12      29.73F
WALSENBURG     CLOUDY    32  27  80 CALM      29.75R
TRINIDAD       FAIR      31  24  75 N12       29.73R WCI  22
$$

COZ042>045-048>051-090-091-210800-
...NORTHEAST COLORADO...

CITY           SKY/WX    TMP DP  RH WIND       PRES   REMARKS
GREELEY ARPT   LGT SNOW  28  27  93 E6        29.83S FOG     WCI  22
AKRON          CLOUDY    28  26  92 NE12      29.80F WCI  18
BURLINGTON     CLOUDY    30  27  88 N16G28    29.77R WCI  19
WRAY           CLOUDY    32  30  93 N15       29.81S WCI  22
YUMA           CLOUDY    30  27  86 NE8       29.80F WCI  23
STERLING       CLOUDY    32  30  93 NE8       29.82F WCI  25
HOLYOKE        CLOUDY    34  30  86 N8        29.84F WCI  27
FORT MORGAN    CLOUDY    30  26  85 NE13      29.81F WCI  20
$$

COZ086-089-092>099-210800-
...SOUTHEAST COLORADO...

CITY           SKY/WX    TMP DP  RH WIND       PRES   REMARKS
PUEBLO         FAIR      32  25  75 E3        29.76F
LA JUNTA       FAIR      31  24  75 N8        29.75F WCI  23
LAMAR          FAIR      27  21  78 NW8       29.74R WCI  19
SPRINGFIELD      N/A     31  22  69 NW13      29.70R WCI  21
$$




USA.gov is the U.S. government's official web portal to all federal, state and local government web resources and services.